Regional Weather Roundup
Issued by NWS

Home | Current Version | Previous Version | Graphics & Text | Print | Product List | Glossary On
Versions: 1 2 3 4 5 6 7 8 9 10 11 12 13 14 15 16 17 18 19 20 21 22 23 24 25 26 27 28 29 30 31 32 33 34 35 36 37 38 39 40 41 42 43 44 45 46 47 48 49 50
916
ASUS45 KBOU 221810
RWRCO

WEATHER ROUNDUP FOR COLORADO
NATIONAL WEATHER SERVICE DENVER/BOULDER CO
1200 PM MDT TUE MAY 22 2018

NOTE: "FAIR" INDICATES FEW OR NO CLOUDS BELOW 12000 FEET WITH NO
SIGNIFICANT WEATHER AND/OR OBSTRUCTIONS TO VISIBILITY.

COZ001>005-013-030-031-221900-
...NORTHWEST COLORADO...

CITY           SKY/WX    TMP DP  RH WIND       PRES   REMARKS
CRAIG          FAIR      70  42  36 W9        29.98F
HAYDEN         FAIR      66  40  38 W10       30.00F
MEEKER         FAIR      72  34  24 CALM      29.97F
RANGELY        MOCLDY    70  35  28 W9        29.95S
RABBIT EARS PA FAIR      52  30  43 S5        30.23S
STEAMBOAT SPGS FAIR      71  32  23 SW3       29.98F
WALDEN         FAIR      66  27  22 SW3       30.08F
$$

COZ006>008-011-221900-
...WEST CENTRAL VALLEYS...

CITY           SKY/WX    TMP DP  RH WIND       PRES   REMARKS
GRAND JUNCTION FAIR      73  36  25 S9        29.92R
MONTROSE       FAIR      72  28  19 SE22      29.98F
EAGLE          FAIR      70  33  25 VRB3      29.99F
RIFLE          FAIR      72  35  25 VRB5      29.93F
DELTA          FAIR      74  35  23 SE7       29.96S
NUCLA          FAIR      75  28  17 S15G22    29.99F
$$

COZ017>023-064>068-221900-
...SOUTHWEST COLORADO...

CITY           SKY/WX    TMP DP  RH WIND       PRES   REMARKS
DURANGO        FAIR      68  42  38 SE12      30.07F
CORTEZ         FAIR      70  44  39 E13G22    30.01F
PAGOSA SPRINGS PTSUNNY   64  35  33 S8G18     30.14F
TELLURIDE      FAIR      56  38  49 SE10G16   30.18F
WOLF CREEK PAS LGT RAIN  41  37  87 S15G23    30.40S
$$

COZ009-010-012-014-032>034-037-058>063-221900-
...CENTRAL COLORADO...

CITY           SKY/WX    TMP DP  RH WIND       PRES   REMARKS
ASPEN          FAIR      69  27  20 S17G31    30.05R
BUENA VISTA    FAIR      64  34  33 S20G25    30.12F
COPPER MTN     FAIR      52  23  32 SE12G21   30.33S
BERTHOUD PASS  FAIR      43  32  65 SW6G21    30.36S
COTTONWOOD PAS PTSUNNY   63  39  42 SE18G24   30.21F
GUNNISON       FAIR      60  35  39 W8        30.11F
GRANBY         FAIR      66  32  28 CALM      30.08F
KREMMLING      FAIR      73  27  17 W5        30.04F
LEADVILLE      FAIR      59  25  27 S12G24    30.18F
MONARCH PASS   FAIR      46  32  57 MISG      30.45R
SALIDA         FAIR      63  38  40 S17G29    30.18F
SUNLIGHT       FAIR      50  30  46 S12G25    30.26F
WILKERSON PASS FAIR      52  32  46 SW8G17    30.33S
$$

COZ069>075-221900-
...SAN LUIS VALLEY/SANGRE DE CRISTO MOUNTAINS...

CITY           SKY/WX    TMP DP  RH WIND       PRES   REMARKS
ALAMOSA        FAIR      62  46  55 S14G24    30.14F
DEL NORTE      FAIR      54  43  66 E6        30.18F
LA VETA PASS   FAIR      54  41  62 S20G29    30.38S
SAGUACHE       NOT AVBL
$$

COZ035-036-038>040-221900-
...NORTHERN COLORADO FRONT RANGE...

CITY           SKY/WX    TMP DP  RH WIND       PRES   REMARKS
DENVER INTL AP PTSUNNY   73  48  41 N7        29.96F
AURORA         PTSUNNY   72  44  36 NW3       29.98S
FRONT RANGE AP PTSUNNY   73  46  38 CALM      29.98S
ERIE MUNI ARPT FAIR      71  51  50 N6        29.99F
BOULDER MUN AP FAIR      70  52  52 NE7       29.95F
CENTENNIAL     PTSUNNY   72  46  39 VRB3      29.98F
BROOMFIELD     PTSUNNY   72  48  43 N7        29.98F
FORT COLLINS   FAIR      72  58  61 VRB5      29.95F
LONGMONT       FAIR      73  55  53 NE5       29.96F
$$

COZ041-046-047-076>085-087-088-221900-
...PIKES PEAK/PALMER DIVIDE AND SOUTHERN FOOTHILLS...

CITY           SKY/WX    TMP DP  RH WIND       PRES   REMARKS
COLO. SPRINGS  PTSUNNY   72  40  31 SE17      30.02F
A. F. ACADEMY  FAIR      71  38  30 S15       30.03S
SCHRIEVER AFB  NOT AVBL
CHEYENNE MTN   FAIR      69  40  34 SE12      30.00F
ELLICOTT         N/A    N/A N/A N/A S9        30.02S
FALCON         FAIR      71  36  27 S9        30.07S
FORT CARSON    PTSUNNY   73  39  29 S7        29.99F
LIMON          FAIR      67  46  47 S10       29.99F
MONUMENT HILL  FAIR      70  39  32 CALM      30.07F
CANON CITY     FAIR      79  39  24 S7        29.96F
WALSENBURG     FAIR      77  41  27 SE12G20   30.02S
TRINIDAD       FAIR      76  45  33 MISG      30.01F
$$

COZ042>045-048>051-090-091-221900-
...NORTHEAST COLORADO...

CITY           SKY/WX    TMP DP  RH WIND       PRES   REMARKS
GREELEY ARPT   FAIR      71  54  54 E7        29.94F
AKRON          FAIR      68  52  56 S15       29.97S
BURLINGTON     FAIR      78  50  37 S17G30    29.96F
WRAY           FAIR      77  52  41 SE13      29.94F
YUMA           FAIR      72  36  26 SE14      29.95F
STERLING       FAIR      72  54  53 CALM      29.93F
HOLYOKE        FAIR      77  52  41 SE12      29.96F
FORT MORGAN    FAIR      73  46  37 SE8       29.95S
$$

COZ086-089-092>099-221900-
...SOUTHEAST COLORADO...

CITY           SKY/WX    TMP DP  RH WIND       PRES   REMARKS
PUEBLO         FAIR      75  40  28 CALM      29.95F
LA JUNTA       FAIR      79  47  32 SE7       29.94F
LAMAR          FAIR      81  44  27 SW21G32   29.91F
SPRINGFIELD    NOT AVBL
$$




USA.gov is the U.S. government's official web portal to all federal, state and local government web resources and services.